Header for Extended Forecast Station List Page

Search by: ID | Name | Date | Parm | Value | Avg | % Avg
Sort by: ID | Name | Date | Parm | Value | Avg | % Avg

Enter search or view all records.

Click on id for station plot
#IDNameDateParmValueAvg% Avg
0LYDM8KOOTENAI-LIBBY DAM09-15-2014INFLOW (KAF)932105788
1LEOI1KOOTENAI-AT LEONIA09-15-2014DISCHARGE (KAF)27691740159
2BFEI1KOOTENAI-AT BONNERS FERRY09-15-2014STAGE (FT)MMM
3FCFM8NF FLATHEAD-NEAR COLUMBIA FALLS09-15-2014DISCHARGE (KAF)19621292
4WGCM8MF FLATHEAD-NEAR WEST GLACIER09-15-2014DISCHARGE (KAF)15618286
5HHWM8SF FLATHEAD-HUNGRY HORSE DAM09-15-2014INFLOW (KAF)16623969
6CFMM8FLATHEAD-AT COLUMBIA FALLS09-15-2014DISCHARGE (KAF)907122174
7DLGM8CLARK FORK-AT DEER LODGE09-15-2014DISCHARGE (KAF)596295
8DRMM8CLARK FORK-NR DRUMMOND09-15-2014DISCHARGE (KAF)142MM
9RCCM8ROCK CREEK-NEAR CLINTON09-15-2014DISCHARGE (KAF)515495
10BONM8BLACKFOOT-NEAR BONNER09-15-2014DISCHARGE (KAF)13414394
11ABOM8CLARK FORK-ABOVE MISSOULA09-15-2014DISCHARGE (KAF)34136095
12BITM8BITTERROOT-NEAR MISSOULA09-15-2014DISCHARGE (KAF)17623375
13BELM8CLARK FORK-BELOW MISSOULA09-15-2014DISCHARGE (KAF)51460086
14STRM8ST. REGIS-NEAR ST. REGIS09-15-2014DISCHARGE (KAF)273382
15SRGM8CLARK FORK-AT ST REGIS09-15-2014DISCHARGE (KAF)68177388
16KERM8FLATHEAD-KERR DAM09-15-2014INFLOW (KAF)1041148170
17NOXM8CLARK FORK-NOXON RAPIDS DAM09-15-2014INFLOW (KAF)2573327579
18CABI1CLARK FORK-CABINET GORGE DAM09-15-2014INFLOW (KAF)2819340183
19PRTI1PRIEST-NEAR PRIEST RIVER09-15-2014DISCHARGE (KAF)21321499
20ALFW1PEND OREILLE-ALBENI FALLS DAM09-15-2014INFLOW (KAF)2918390375
21HOPI1PEND OREILLE-PEND OREILLE LAKE NR HOPE09-15-2014LAKE ELEVATION (FT)MMM
22COEI1COEUR D ALENE-COEUR D ALENE LAKE09-15-2014INFLOW (KAF)26843961
23SPOW1SPOKANE-AT SPOKANE09-15-2014DISCHARGE (KAF)445MM
24LLKW1SPOKANE-AT LONGLAKE09-15-2014INFLOW (KAF)61788670
25SATI1ST MARIES-NEAR SANTA09-15-2014DISCHARGE (KAF)172376
26SJMI1ST JOE-AT ST MARIES09-15-2014STAGE (FT)MMM
27CIBW1COLUMBIA-AT INTL BOUNDARY09-15-2014DISCHARGE (KAF)17451MM
28LAUW1KETTLE-AT LAURIER09-15-2014DISCHARGE (KAF)9212673
29GCDW1COLUMBIA-GRAND COULEE DAM09-15-2014INFLOW (KAF)1822217195106
30CHJW1COLUMBIA-CHIEF JOSEPH DAM09-15-2014INFLOW (KAF)178111961391
31TONW1OKANOGAN-NEAR TONASKET09-15-2014DISCHARGE (KAF)18027566
32PATW1METHOW-NEAR PATEROS09-15-2014DISCHARGE (KAF)8610186
33WELW1COLUMBIA-WELLS DAM09-15-2014INFLOW (KAF)180751993291
34CHDW1CHELAN-LAKE CHELAN DAM09-15-2014INFLOW (KAF)14515792
35RRHW1COLUMBIA-ROCKY REACH DAM09-15-2014INFLOW (KAF)185382042191
36ARDW1ENTIAT-NEAR ARDENVOIR09-15-2014DISCHARGE (KAF)222299
37PESW1WENATCHEE-AT PESHASTIN09-15-2014DISCHARGE (KAF)291265110
38WANW1COLUMBIA-WANAPUM DAM09-15-2014INFLOW (KAF)1882718773100
39PRWW1COLUMBIA-PRIEST RAPIDS DAM09-15-2014INFLOW (KAF)188271906899
40KEDW1YAKIMA-KEECHELUS LAKE09-15-2014INFLOW (KAF)4944112
41KADW1KACHESS-KACHESS DAM09-15-2014INFLOW (KAF)3735105
42EASW1YAKIMA-AT EASTON09-15-2014DISCHARGE (KAF)8858152
43CLUW1CLE ELUM-CLE ELUM LAKE09-15-2014INFLOW (KAF)9489106
44TNAW1TEANAWAY-BELOW FORKS09-15-2014DISCHARGE (KAF)162662
45UMTW1YAKIMA-AT UMTANUM09-15-2014DISCHARGE (KAF)26427496
46BUDW1BUMPING-BUMPING LAKE DAM09-15-2014INFLOW (KAF)263087
47CLFW1NACHES-NEAR CLIFFDEL09-15-2014DISCHARGE (KAF)739082
48RILW1TIETON-RIMROCK LAKE NEAR RIMROCK09-15-2014INFLOW (KAF)506183
49NACW1NACHES-NEAR NACHES09-15-2014DISCHARGE (KAF)18174243
50PARW1YAKIMA-NEAR PARKER09-15-2014DISCHARGE (KAF)424330128
51KIOW1YAKIMA-AT KIONA09-15-2014DISCHARGE (KAF)719587122
52IPDI1HENRYS FORK-ISLAND PARK DAM09-15-2014INFLOW (KAF)11712395
53CHEI1FALLS-NEAR CHESTER09-15-2014DISCHARGE (KAF)140106132
54ANTI1HENRYS FORK-AT ST. ANTHONY09-15-2014DISCHARGE (KAF)30533292
55TEAI1TETON-NEAR ST. ANTHONY09-15-2014DISCHARGE (KAF)11912099
56REXI1HENRYS FORK-AT REXBURG09-15-2014DISCHARGE (KAF)40842197
57JLKW4SNAKE-JACKSON LAKE AT DAM09-15-2014INFLOW (KAF)118112105
58JKSW4SNAKE-NEAR JACKSON09-15-2014DISCHARGE (KAF)394386102
59ALPW4SNAKE-NEAR ALPINE09-15-2014DISCHARGE (KAF)499481104
60PLDI1SF SNAKE-PALISADES DAM09-15-2014INFLOW (KAF)760745102
61HEII1SNAKE-NEAR HEISE09-15-2014DISCHARGE (KAF)76378597
62RIDI1WILLOW CREEK-RIRIE DAM09-15-2014INFLOW (KAF)5863
63SIFI1SNAKE-AB EAGLE ROCK NR IDAHO FALLS09-15-2014DISCHARGE (KAF)864862100
64SHYI1SNAKE-NEAR SHELLEY09-15-2014DISCHARGE (KAF)852796107
65SNAI1SNAKE-AT BLACKFOOT09-15-2014DISCHARGE (KAF)691659105
66BFTI1SNAKE-NEAR BLACKFOOT09-15-2014DISCHARGE (KAF)709707100
67PIHI1PORTNEUF-AT POCATELLO09-15-2014DISCHARGE (KAF)405277
68AFRI1SNAKE-AMERICAN FALLS RESERVOIR09-15-2014INFLOW (KAF)1358138798
69MILI1SNAKE-AT MILNER09-15-2014DISCHARGE (KAF)10237727
70HOTI1BRUNEAU-NEAR HOT SPRINGS09-15-2014DISCHARGE (KAF)242499
71SWAI1SNAKE-BELOW SWAN FALLS09-15-2014DISCHARGE (KAF)1960241881
72HWRI1BIG LOST-AT HOWELL RANCH NEAR CHILLY09-15-2014DISCHARGE (KAF)162467
73MACI1BIG LOST-MACKAY RESERVOIR NEAR MACKAY09-15-2014INFLOW (KAF)289299
74HALI1BIG WOOD-AT HAILEY09-15-2014DISCHARGE (KAF)294368
75MAGI1BIG WOOD-MAGIC DAM09-15-2014INFLOW (KAF)132747
76LWRI1LITTLE WOOD-LITTLE WOOD DAM09-15-2014INFLOW (KAF)51537
77OWYO3OWYHEE-BELOW OWYHEE DAM09-15-2014INFLOW (KAF)356454
78ARAI1SF BOISE-ANDERSON RANCH DAM09-15-2014INFLOW (KAF)7170101
79LUCI1BOISE-LUCKY PEAK DAM09-15-2014INFLOW (KAF)45MM
80BIGI1BOISE-AT GLENWOOD BRIDGE09-15-2014DISCHARGE (KAF)5954109
81PARI1BOISE-NEAR PARMA09-15-2014DISCHARGE (KAF)19121987
82WRMO3MALHEUR-WARM SPRINGS DAM09-15-2014INFLOW (KAF)101283
83BERO3MALHEUR-AGENCY VALLEY DAM09-15-2014INFLOW (KAF)111292
84BULO3BULLY CREEK-BULLY CREEK DAM09-15-2014INFLOW (KAF)1184
85VALO3MALHEUR-NEAR VALE09-15-2014DISCHARGE (KAF)112443
86CSDI1NF PAYETTE-CASCADE DAM09-15-2014INFLOW (KAF)758885
87DEDI1DEADWOOD-NEAR LOWMAN09-15-2014INFLOW (KAF)171893
88EMMI1PAYETTE-NEAR EMMETT09-15-2014DISCHARGE (KAF)24735270
89WSRI1WEISER-NEAR WEISER09-15-2014DISCHARGE (KAF)385372
90WEII1SNAKE-AT WEISER09-15-2014DISCHARGE (KAF)2445346071
91BRNI1SNAKE-BROWNLEE DAM09-15-2014INFLOW (KAF)2616352274
92WHBI1SALMON-AT WHITEBIRD09-15-2014DISCHARGE (KAF)970110188
93TRYO3GRANDE RONDE-TROY09-15-2014DISCHARGE (KAF)16523670
94ANAW1SNAKE-NEAR ANATONE09-15-2014DISCHARGE (KAF)3603522869
95ORFI1CLEARWATER-AT OROFINO09-15-2014DISCHARGE (KAF)39755372
96DWRI1NF CLEARWATER-DWORSHAK DAM09-15-2014INFLOW (KAF)32441578
97SPDI1CLEARWATER-AT SPALDING09-15-2014DISCHARGE (KAF)897133667
98LGDW1SNAKE-LOWER GRANITE DAM09-15-2014INFLOW (KAF)4500672367
99LGSW1SNAKE-LITTLE GOOSE DAM09-15-2014INFLOW (KAF)4446676066
100LMNW1SNAKE-LOWER MONUMENTAL DAM09-15-2014INFLOW (KAF)4432678165
101IHDW1SNAKE-ICE HARBOR DAM09-15-2014INFLOW (KAF)4429671366
102TCHW1WALLA WALLA-NEAR TOUCHET09-15-2014DISCHARGE (KAF)616299
103MCDW1COLUMBIA-MCNARY DAM09-15-2014INFLOW (KAF)239992726188
104GIBO3UMATILLA-NEAR GIBBON09-15-2014DISCHARGE (KAF)192283
105PDTO3UMATILLA-AT PENDLETON09-15-2014DISCHARGE (KAF)394391
106MYKO3MCKAY CREEK-NEAR PILOT ROCK09-15-2014DISCHARGE (KAF)8896
107UMAO3UMATILLA-NEAR UMATILLA09-15-2014DISCHARGE (KAF)6243146
108MONO3NF JOHN DAY-AT MONUMENT09-15-2014DISCHARGE (KAF)446073
109SERO3JOHN DAY-AT SERVICE CK09-15-2014DISCHARGE (KAF)8911975
110JDAO3COLUMBIA-JOHN DAY DAM09-15-2014INFLOW (KAF)247982791289
111MODO3DESCHUTES-AT MOODY NR BIGGS09-15-2014DISCHARGE (KAF)1223124398
112TDAO3COLUMBIA-THE DALLES DAM09-15-2014INFLOW (KAF)255213039884
113PITW1KLICKITAT-NEAR PITT09-15-2014DISCHARGE (KAF)19521691
114HODO3HOOD-NEAR TUCKER BRIDGE09-15-2014DISCHARGE (KAF)191167114
115UNDW1WHITE SALMON-NEAR UNDERWOOD09-15-2014DISCHARGE (KAF)18218897
116BONO3COLUMBIA-BONNEVILLE DAM09-15-2014INFLOW (KAF)26082MM